Weather History for Wisconsin Rapids, WI

Change the Weather History Date:

Wednesday, January 2, 2013

  Actual Average Record
Temperature  
Mean Temperature 16 °F -  
Max Temperature 21 °F 23 °F 46 °F (1998)
Min Temperature 12 °F 5 °F -22 °F (1979)
Degree Days  
Heating Degree Days 48    
Moisture  
Dew Point 9 °F    
Average Humidity 70    
Maximum Humidity 92    
Minimum Humidity 54    
Precipitation  
Precipitation 0.00 in - - ()
Sea Level Pressure  
Sea Level Pressure 30.08 in    
Wind  
Wind Speed 5 mph (SSW)    
Max Wind Speed 8 mph    
Max Gust Speed -    
Visibility 10 miles    
Events      
Averages and records for this station are not official NWS values.
T = Trace of Precipitation, MM = Missing Value Source: NWS Daily Summary

Daily Weather History Graph

Daily Weather History Graph

Search for Another Location

Airport:

Trip Planner

Search our weather history database for the weather conditions in past years. The results will help you decide how hot, cold, wet, or windy it might be!

Date:

Astronomy

Jan. 02, 2013 Rise Set
Actual Time 7:35 AM CST 4:31 PM CST
Civil Twilight 7:02 AM CST 5:05 PM CST
Nautical Twilight 6:25 AM CST 5:41 PM CST
Astronomical Twilight 5:50 AM CST 6:16 PM CST
Moon 10:18 PM CST (1/2) 10:04 AM CST (1/2)
Length of Visible Light 10h 02m
Length of Day
8h 56m
Waning Gibbous, 75% of the Moon is Illuminated
Jan 2
Waning Gibbous
Jan 4
Last Quarter
Jan 11
New
Jan 18
First Quarter
Jan 26
Full

Hourly Weather History & Observations

Time (CST) Temp. Windchill Dew Point Humidity Pressure Visibility Wind Dir Wind Speed Gust Speed Precip Events Conditions
12:54 AM 14.0 °F 6.5 °F 6.1 °F 71% 30.14 in 10.0 mi WSW 4.6 mph - N/A   Overcast
1:54 AM 15.1 °F 5.2 °F 8.1 °F 74% 30.13 in 10.0 mi SW 6.9 mph - N/A   Overcast
2:54 AM 15.1 °F 6.4 °F 9.0 °F 77% 30.13 in 10.0 mi SW 5.8 mph - N/A   Overcast
3:54 AM 16.0 °F 10.4 °F 10.0 °F 77% 30.13 in 10.0 mi SW 3.5 mph - N/A   Overcast
4:04 AM 15.8 °F 10.2 °F 10.4 °F 79% 30.06 in 10.0 mi SSW 3.5 mph - N/A   Overcast
4:54 AM 16.0 °F 7.4 °F 10.9 °F 81% 30.12 in 10.0 mi SW 5.8 mph - N/A   Overcast
5:54 AM 15.1 °F - 10.9 °F 84% 30.12 in 10.0 mi Calm Calm - N/A   Overcast
6:12 AM 14.0 °F 6.5 °F 10.4 °F 86% 30.05 in 10.0 mi SSE 4.6 mph - N/A   Scattered Clouds
6:32 AM 12.2 °F 6.1 °F 10.4 °F 92% 30.05 in 10.0 mi SSE 3.5 mph - N/A   Mostly Cloudy
6:54 AM 14.0 °F 6.5 °F 10.0 °F 84% 30.12 in 10.0 mi South 4.6 mph - N/A   Overcast
7:54 AM 15.1 °F 6.4 °F 9.0 °F 77% 30.12 in 10.0 mi South 5.8 mph - N/A   Overcast
8:54 AM 15.1 °F 5.2 °F 7.0 °F 70% 30.13 in 10.0 mi South 6.9 mph - N/A   Overcast
9:30 AM 15.8 °F 6.1 °F 6.8 °F 68% 30.06 in 10.0 mi South 6.9 mph - N/A   Partly Cloudy
9:54 AM 17.1 °F 6.6 °F 6.1 °F 62% 30.12 in 10.0 mi South 8.1 mph - N/A   Clear
10:54 AM 19.0 °F 9.0 °F 5.0 °F 54% 30.10 in 10.0 mi South 8.1 mph - N/A   Clear
11:54 AM 19.9 °F 11.1 °F 6.1 °F 55% 30.08 in 10.0 mi SSW 6.9 mph - N/A   Overcast
12:54 PM 19.9 °F 11.1 °F 7.0 °F 57% 30.06 in 10.0 mi South 6.9 mph - N/A   Overcast
1:54 PM 21.0 °F 12.4 °F 8.1 °F 57% 30.04 in 10.0 mi SSW 6.9 mph - N/A   Overcast
2:54 PM 21.9 °F 14.5 °F 9.0 °F 58% 30.04 in 10.0 mi SSE 5.8 mph - N/A   Overcast
3:54 PM 21.9 °F 15.7 °F 9.0 °F 58% 30.05 in 10.0 mi South 4.6 mph - N/A   Overcast
5:54 PM 21.0 °F 13.4 °F 9.0 °F 60% 30.07 in 10.0 mi South 5.8 mph - N/A   Overcast
6:54 PM 21.0 °F 12.4 °F 10.0 °F 63% 30.08 in 10.0 mi SSW 6.9 mph - N/A   Overcast
7:25 PM 19.4 °F 11.5 °F 10.4 °F 68% 30.01 in 10.0 mi SSW 5.8 mph - N/A   Overcast
7:54 PM 19.9 °F 13.4 °F 10.0 °F 65% 30.06 in 10.0 mi SW 4.6 mph - N/A   Overcast
8:52 PM 19.4 °F 11.5 °F 10.4 °F 68% 30.01 in 10.0 mi SW 5.8 mph - N/A   Overcast
8:54 PM 19.0 °F 10.0 °F 10.0 °F 68% 30.07 in 10.0 mi SW 6.9 mph - N/A   Overcast
9:54 PM 19.0 °F 11.1 °F 10.9 °F 71% 30.07 in 10.0 mi WSW 5.8 mph - N/A   Overcast
10:04 PM 19.4 °F 12.8 °F 10.4 °F 68% 30.01 in 10.0 mi WSW 4.6 mph - N/A   Overcast
10:54 PM 19.0 °F 10.0 °F 12.0 °F 74% 30.07 in 9.0 mi West 6.9 mph - N/A   Overcast
11:54 PM 19.0 °F 9.0 °F 10.9 °F 71% 30.08 in 8.0 mi West 8.1 mph - N/A   Overcast